Time,TemperatureF,DewpointF,PressureIn,WindDirection,WindDirectionDegrees,WindSpeedMPH,WindSpeedGustMPH,Humidity,HourlyPrecipIn,Conditions,Clouds,dailyrainin,SolarRadiationWatts/m^2,SoftwareType,DateUTC
2013-10-26 00:01:00,27.0,26.0,-100.00,SSW,208,3.0,5.0,96,0.00,,,0.00,0.000000,,2013-10-26 04:01:00,
2013-10-26 00:24:00,27.0,26.0,-100.00,SSW,208,3.0,5.0,96,0.00,,,0.00,0.000000,,2013-10-26 04:24:00,
2013-10-26 00:34:00,27.0,26.0,-100.00,SSW,208,3.0,5.0,96,0.00,,,0.00,0.000000,,2013-10-26 04:34:00,
2013-10-26 00:44:00,27.0,26.0,-100.00,SSW,208,3.0,5.0,96,0.00,,,0.00,0.000000,,2013-10-26 04:44:00,
2013-10-26 00:54:00,27.0,26.0,-100.00,SSW,208,3.0,5.0,96,0.00,,,0.00,0.000000,,2013-10-26 04:54:00,
2013-10-26 01:01:00,26.0,26.0,-100.00,SW,226,4.0,6.0,100,0.00,,,0.00,0.000000,,2013-10-26 05:01:00,
2013-10-26 01:23:00,26.0,26.0,-100.00,SW,226,4.0,6.0,100,0.00,,,0.00,0.000000,,2013-10-26 05:23:00,
2013-10-26 01:34:00,26.0,26.0,-100.00,SW,226,4.0,6.0,100,0.00,,,0.00,0.000000,,2013-10-26 05:34:00,
2013-10-26 01:43:00,26.0,26.0,-100.00,SW,226,4.0,6.0,100,0.00,,,0.00,0.000000,,2013-10-26 05:43:00,
2013-10-26 01:52:00,26.0,26.0,-100.00,SW,226,4.0,6.0,100,0.00,,,0.00,0.000000,,2013-10-26 05:52:00,
2013-10-26 02:01:00,25.0,25.0,-100.00,WSW,249,3.0,6.0,100,0.00,,,0.00,0.000000,,2013-10-26 06:01:00,
2013-10-26 02:42:00,25.0,25.0,-100.00,WSW,249,3.0,6.0,100,0.00,,,0.00,0.000000,,2013-10-26 06:42:00,
2013-10-26 02:52:00,25.0,25.0,-100.00,WSW,249,3.0,6.0,100,0.00,,,0.00,0.000000,,2013-10-26 06:52:00,
2013-10-26 03:01:00,25.0,25.0,-100.00,North,10,2.0,4.0,100,0.00,,,0.00,0.000000,,2013-10-26 07:01:00,
2013-10-26 03:42:00,25.0,25.0,-100.00,North,10,2.0,4.0,100,0.00,,,0.00,0.000000,,2013-10-26 07:42:00,
2013-10-26 03:52:00,25.0,25.0,-100.00,North,10,2.0,4.0,100,0.00,,,0.00,0.000000,,2013-10-26 07:52:00,
2013-10-26 04:01:00,24.0,24.0,-100.00,NE,44,1.0,2.0,100,0.00,,,0.00,0.000000,,2013-10-26 08:01:00,
2013-10-26 04:22:00,24.0,24.0,-100.00,NE,44,1.0,2.0,100,0.00,,,0.00,0.000000,,2013-10-26 08:22:00,
2013-10-26 04:32:00,24.0,24.0,-100.00,NE,44,1.0,2.0,100,0.00,,,0.00,0.000000,,2013-10-26 08:32:00,
2013-10-26 04:42:00,24.0,24.0,-100.00,NE,44,1.0,2.0,100,0.00,,,0.00,0.000000,,2013-10-26 08:42:00,
2013-10-26 04:52:00,24.0,24.0,-100.00,NE,44,1.0,2.0,100,0.00,,,0.00,0.000000,,2013-10-26 08:52:00,
2013-10-26 05:01:00,24.0,24.0,-100.00,SSW,201,1.0,4.0,100,0.00,,,0.00,0.000000,,2013-10-26 09:01:00,
2013-10-26 05:43:00,24.0,24.0,-100.00,SSW,201,1.0,4.0,100,0.00,,,0.00,0.000000,,2013-10-26 09:43:00,
2013-10-26 05:53:00,24.0,24.0,-100.00,SSW,201,1.0,4.0,100,0.00,,,0.00,0.000000,,2013-10-26 09:53:00,
2013-10-26 06:01:00,23.0,23.0,-100.00,SSW,205,3.0,4.0,100,0.00,,,0.00,0.000000,,2013-10-26 10:01:00,
2013-10-26 06:42:00,23.0,23.0,-100.00,SSW,205,3.0,4.0,100,0.00,,,0.00,0.000000,,2013-10-26 10:42:00,
2013-10-26 06:53:00,23.0,23.0,-100.00,SSW,205,3.0,4.0,100,0.00,,,0.00,0.000000,,2013-10-26 10:53:00,
2013-10-26 07:01:00,23.0,23.0,-100.00,SW,215,3.0,5.0,100,0.00,,,0.00,0.000000,,2013-10-26 11:01:00,
2013-10-26 07:42:00,23.0,23.0,-100.00,SW,215,3.0,5.0,100,0.00,,,0.00,0.000000,,2013-10-26 11:42:00,
2013-10-26 07:52:00,23.0,23.0,-100.00,SW,215,3.0,5.0,100,0.00,,,0.00,0.000000,,2013-10-26 11:52:00,
2013-10-26 08:01:00,22.0,22.0,-100.00,SSW,208,4.0,6.0,100,0.00,,,0.00,4.000000,,2013-10-26 12:01:00,
2013-10-26 08:42:00,22.0,22.0,-100.00,SSW,208,4.0,6.0,100,0.00,,,0.00,4.000000,,2013-10-26 12:42:00,
2013-10-26 08:52:00,22.0,22.0,-100.00,SSW,208,4.0,6.0,100,0.00,,,0.00,4.000000,,2013-10-26 12:52:00,
2013-10-26 09:01:00,25.0,25.0,-100.00,SW,229,3.0,6.0,100,0.00,,,-99.99,76.000000,,2013-10-26 13:01:00,
2013-10-26 09:22:00,25.0,25.0,-100.00,SW,229,3.0,6.0,100,0.00,,,-99.99,76.000000,,2013-10-26 13:22:00,
2013-10-26 09:32:00,25.0,25.0,-100.00,SW,229,3.0,6.0,100,0.00,,,-99.99,76.000000,,2013-10-26 13:32:00,
2013-10-26 09:42:00,25.0,25.0,-100.00,SW,229,3.0,6.0,100,0.00,,,-99.99,76.000000,,2013-10-26 13:42:00,
2013-10-26 09:52:00,25.0,25.0,-100.00,SW,229,3.0,6.0,100,0.00,,,-99.99,76.000000,,2013-10-26 13:52:00,
2013-10-26 10:01:00,29.0,29.0,-100.00,SSW,209,4.0,7.0,100,0.00,,,0.00,321.000000,,2013-10-26 14:01:00,
2013-10-26 10:42:00,29.0,29.0,-100.00,SSW,209,4.0,7.0,100,0.00,,,0.00,321.000000,,2013-10-26 14:42:00,
2013-10-26 10:52:00,29.0,29.0,-100.00,SSW,209,4.0,7.0,100,0.00,,,0.00,321.000000,,2013-10-26 14:52:00,
2013-10-26 11:01:00,35.0,31.0,-100.00,SW,222,5.0,9.0,84,0.00,,,0.00,516.000000,,2013-10-26 15:01:00,
2013-10-26 11:44:00,35.0,31.0,-100.00,SW,222,5.0,9.0,84,0.00,,,0.00,516.000000,,2013-10-26 15:44:00,
2013-10-26 11:55:00,35.0,31.0,-100.00,SW,222,5.0,9.0,84,0.00,,,0.00,516.000000,,2013-10-26 15:55:00,
2013-10-26 12:01:00,43.0,24.0,-100.00,SW,218,4.0,9.0,47,0.00,,,0.00,659.000000,,2013-10-26 16:01:00,
2013-10-26 12:44:00,43.0,24.0,-100.00,SW,218,4.0,9.0,47,0.00,,,0.00,659.000000,,2013-10-26 16:44:00,
2013-10-26 12:54:00,43.0,24.0,-100.00,SW,218,4.0,9.0,47,0.00,,,0.00,659.000000,,2013-10-26 16:54:00,
2013-10-26 13:01:00,45.0,25.0,-100.00,SSW,206,7.0,10.0,45,0.00,,,0.00,740.000000,,2013-10-26 17:01:00,
2013-10-26 13:43:00,45.0,25.0,-100.00,SSW,206,7.0,10.0,45,0.00,,,0.00,740.000000,,2013-10-26 17:43:00,
2013-10-26 13:52:00,45.0,25.0,-100.00,SSW,206,7.0,10.0,45,0.00,,,0.00,740.000000,,2013-10-26 17:52:00,
2013-10-26 14:01:00,49.0,26.0,-100.00,SW,217,6.0,11.0,41,0.00,,,0.00,753.000000,,2013-10-26 18:01:00,
2013-10-26 14:42:00,49.0,26.0,-100.00,SW,217,6.0,11.0,41,0.00,,,0.00,753.000000,,2013-10-26 18:42:00,
2013-10-26 14:52:00,49.0,26.0,-100.00,SW,217,6.0,11.0,41,0.00,,,0.00,753.000000,,2013-10-26 18:52:00,
2013-10-26 15:01:00,48.0,22.0,-100.00,SSW,213,7.0,12.0,35,0.00,,,0.00,700.000000,,2013-10-26 19:01:00,
2013-10-26 15:42:00,48.0,22.0,-100.00,SSW,213,7.0,12.0,35,0.00,,,0.00,700.000000,,2013-10-26 19:42:00,
2013-10-26 15:52:00,48.0,22.0,-100.00,SSW,213,7.0,12.0,35,0.00,,,0.00,700.000000,,2013-10-26 19:52:00,
2013-10-26 16:01:00,50.0,21.0,-100.00,SSW,209,8.0,14.0,32,0.00,,,0.00,579.000000,,2013-10-26 20:01:00,
2013-10-26 16:43:00,50.0,21.0,-100.00,SSW,209,8.0,14.0,32,0.00,,,0.00,579.000000,,2013-10-26 20:43:00,
2013-10-26 16:52:00,50.0,21.0,-100.00,SSW,209,8.0,14.0,32,0.00,,,0.00,579.000000,,2013-10-26 20:52:00,
2013-10-26 17:01:00,45.0,19.0,-100.00,SW,219,6.0,13.0,35,0.00,,,0.00,143.000000,,2013-10-26 21:01:00,
2013-10-26 17:43:00,45.0,19.0,-100.00,SW,219,6.0,13.0,35,0.00,,,0.00,143.000000,,2013-10-26 21:43:00,
2013-10-26 17:55:00,45.0,19.0,-100.00,SW,219,6.0,13.0,35,0.00,,,0.00,143.000000,,2013-10-26 21:55:00,
2013-10-26 18:01:00,44.0,19.0,-100.00,SW,214,7.0,12.0,37,0.00,,,0.00,28.000000,,2013-10-26 22:01:00,
2013-10-26 18:44:00,44.0,19.0,-100.00,SW,214,7.0,12.0,37,0.00,,,0.00,28.000000,,2013-10-26 22:44:00,
2013-10-26 18:54:00,44.0,19.0,-100.00,SW,214,7.0,12.0,37,0.00,,,0.00,28.000000,,2013-10-26 22:54:00,
2013-10-26 19:01:00,44.0,19.0,-100.00,SW,229,6.0,12.0,36,0.00,,,0.00,3.000000,,2013-10-26 23:01:00,
2013-10-26 19:42:00,44.0,19.0,-100.00,SW,229,6.0,12.0,36,0.00,,,0.00,3.000000,,2013-10-26 23:42:00,
2013-10-26 19:52:00,44.0,19.0,-100.00,SW,229,6.0,12.0,36,0.00,,,0.00,3.000000,,2013-10-26 23:52:00,
2013-10-26 20:01:00,44.0,19.0,-100.00,SW,231,7.0,13.0,37,0.00,,,0.00,0.000000,,2013-10-27 00:01:00,
2013-10-26 20:22:00,44.0,19.0,-100.00,SW,231,7.0,13.0,37,0.00,,,0.00,0.000000,,2013-10-27 00:22:00,
2013-10-26 20:32:00,44.0,19.0,-100.00,SW,231,7.0,13.0,37,0.00,,,0.00,0.000000,,2013-10-27 00:32:00,
2013-10-26 20:42:00,44.0,19.0,-100.00,SW,231,7.0,13.0,37,0.00,,,0.00,0.000000,,2013-10-27 00:42:00,
2013-10-26 20:52:00,44.0,19.0,-100.00,SW,231,7.0,13.0,37,0.00,,,0.00,0.000000,,2013-10-27 00:52:00,
2013-10-26 21:01:00,44.0,22.0,-100.00,SW,232,6.0,14.0,42,0.00,,,0.00,0.000000,,2013-10-27 01:01:00,
2013-10-26 21:42:00,44.0,22.0,-100.00,SW,232,6.0,14.0,42,0.00,,,0.00,0.000000,,2013-10-27 01:42:00,
2013-10-26 21:52:00,44.0,22.0,-100.00,SW,232,6.0,14.0,42,0.00,,,0.00,0.000000,,2013-10-27 01:52:00,
2013-10-26 22:01:00,44.0,28.0,-100.00,West,275,7.0,14.0,53,0.00,,,0.00,0.000000,,2013-10-27 02:01:00,
2013-10-26 22:42:00,44.0,28.0,-100.00,West,275,7.0,14.0,53,0.00,,,0.00,0.000000,,2013-10-27 02:42:00,
2013-10-26 22:52:00,44.0,28.0,-100.00,West,275,7.0,14.0,53,0.00,,,0.00,0.000000,,2013-10-27 02:52:00,
2013-10-26 23:01:00,-999.0,-99.9,-100.00,WNW,285,9.0,22.0,-999,-99.99,,,-99.99,0.000000,,2013-10-27 03:01:00,
2013-10-26 23:45:00,43.0,27.0,-100.00,WNW,285,9.0,22.0,53,0.00,,,0.00,0.000000,,2013-10-27 03:45:00,
2013-10-26 23:55:00,43.0,27.0,-100.00,WNW,285,9.0,22.0,53,0.00,,,0.00,0.000000,,2013-10-27 03:55:00,